Time,TemperatureF,DewpointF,PressureIn,WindDirection,WindDirectionDegrees,WindSpeedMPH,WindSpeedGustMPH,Humidity,HourlyPrecipIn,Conditions,Clouds,dailyrainin,SoftwareType,DateUTC
2013-02-06 00:01:00,30.9,28.0,30.00,West,279,12.0,-999.0,89,-99.99,,,0.02,weatherlink.com 1.10,2013-02-06 05:01:00,
2013-02-06 00:15:00,30.8,28.0,30.02,WNW,283,12.0,-999.0,88,-99.99,,,0.02,weatherlink.com 1.10,2013-02-06 05:15:00,
2013-02-06 00:30:00,30.7,28.0,30.03,West,281,13.0,-999.0,89,-99.99,,,0.02,weatherlink.com 1.10,2013-02-06 05:30:00,
2013-02-06 00:46:00,30.6,28.0,30.04,WNW,283,9.0,-999.0,89,-99.99,,,0.02,weatherlink.com 1.10,2013-02-06 05:46:00,
2013-02-06 01:01:00,30.5,28.0,30.04,West,278,7.0,-999.0,89,-99.99,,,0.02,weatherlink.com 1.10,2013-02-06 06:01:00,
2013-02-06 01:16:00,30.5,28.0,30.05,West,278,13.0,-999.0,89,-99.99,,,0.02,weatherlink.com 1.10,2013-02-06 06:16:00,
2013-02-06 01:31:00,30.5,28.0,30.06,WNW,282,7.0,-999.0,89,-99.99,,,0.02,weatherlink.com 1.10,2013-02-06 06:31:00,
2013-02-06 01:46:00,30.5,27.0,30.06,West,281,7.0,-999.0,88,-99.99,,,0.02,weatherlink.com 1.10,2013-02-06 06:46:00,
2013-02-06 02:01:00,30.5,27.0,30.07,West,281,9.0,-999.0,88,-99.99,,,0.02,weatherlink.com 1.10,2013-02-06 07:01:00,
2013-02-06 02:16:00,30.5,27.0,30.07,West,281,6.0,-999.0,87,-99.99,,,0.02,weatherlink.com 1.10,2013-02-06 07:16:00,
2013-02-06 02:31:00,30.5,27.0,30.08,West,281,5.0,-999.0,87,-99.99,,,0.02,weatherlink.com 1.10,2013-02-06 07:31:00,
2013-02-06 02:46:00,30.4,27.0,30.08,West,281,5.0,-999.0,86,-99.99,,,0.02,weatherlink.com 1.10,2013-02-06 07:46:00,
2013-02-06 03:02:00,30.3,27.0,30.09,West,281,8.0,-999.0,86,-99.99,,,0.02,weatherlink.com 1.10,2013-02-06 08:02:00,
2013-02-06 03:16:00,30.2,26.0,30.10,West,281,6.0,-999.0,85,-99.99,,,0.02,weatherlink.com 1.10,2013-02-06 08:16:00,
2013-02-06 03:32:00,30.1,26.0,30.10,West,281,5.0,-999.0,85,-99.99,,,0.02,weatherlink.com 1.10,2013-02-06 08:32:00,
2013-02-06 03:47:00,30.0,26.0,30.11,West,281,5.0,-999.0,85,-99.99,,,0.02,weatherlink.com 1.10,2013-02-06 08:47:00,
2013-02-06 04:17:00,29.9,26.0,30.13,West,281,5.0,-999.0,84,-99.99,,,0.02,weatherlink.com 1.10,2013-02-06 09:17:00,
2013-02-06 04:32:00,29.7,25.0,30.12,West,281,5.0,-999.0,84,-99.99,,,0.02,weatherlink.com 1.10,2013-02-06 09:32:00,
2013-02-06 04:47:00,29.6,25.0,30.13,WNW,300,8.0,-999.0,82,-99.99,,,0.02,weatherlink.com 1.10,2013-02-06 09:47:00,
2013-02-06 05:02:00,29.1,23.0,30.14,NNW,327,7.0,-999.0,79,-99.99,,,0.02,weatherlink.com 1.10,2013-02-06 10:02:00,
2013-02-06 05:17:00,28.7,23.0,30.15,NNW,333,10.0,-999.0,79,-99.99,,,0.02,weatherlink.com 1.10,2013-02-06 10:17:00,
2013-02-06 05:32:00,28.2,22.0,30.16,NNW,348,7.0,-999.0,79,-99.99,,,0.02,weatherlink.com 1.10,2013-02-06 10:32:00,
2013-02-06 05:47:00,27.1,20.0,30.17,North,360,7.0,-999.0,76,-99.99,,,0.02,weatherlink.com 1.10,2013-02-06 10:47:00,
2013-02-06 06:03:00,26.7,21.0,30.19,North,360,5.0,-999.0,78,-99.99,,,0.02,weatherlink.com 1.10,2013-02-06 11:03:00,
2013-02-06 06:18:00,26.2,19.0,30.19,North,5,3.0,-999.0,75,-99.99,,,0.00,weatherlink.com 1.10,2013-02-06 11:18:00,
2013-02-06 06:33:00,26.0,19.0,30.20,North,5,2.0,-999.0,74,-99.99,,,0.00,weatherlink.com 1.10,2013-02-06 11:33:00,
2013-02-06 06:48:00,25.7,19.0,30.20,North,5,4.0,-999.0,75,-99.99,,,0.00,weatherlink.com 1.10,2013-02-06 11:48:00,
2013-02-06 07:03:00,25.4,18.0,30.21,NNE,21,3.0,-999.0,74,-99.99,,,0.00,weatherlink.com 1.10,2013-02-06 12:03:00,
2013-02-06 07:18:00,25.0,18.0,30.23,NNE,21,2.0,-999.0,74,-99.99,,,0.00,weatherlink.com 1.10,2013-02-06 12:18:00,
2013-02-06 07:33:00,24.7,17.0,30.23,NNE,21,3.0,-999.0,73,-99.99,,,0.00,weatherlink.com 1.10,2013-02-06 12:33:00,
2013-02-06 07:48:00,23.9,16.0,30.24,NNE,21,3.0,-999.0,73,-99.99,,,0.00,weatherlink.com 1.10,2013-02-06 12:48:00,
2013-02-06 08:04:00,23.5,16.0,30.25,NNE,21,2.0,-999.0,74,-99.99,,,0.00,weatherlink.com 1.10,2013-02-06 13:04:00,
2013-02-06 08:19:00,22.7,15.0,30.25,NNE,21,2.0,-999.0,72,-99.99,,,0.00,weatherlink.com 1.10,2013-02-06 13:19:00,
2013-02-06 08:34:00,22.7,15.0,30.26,NNE,21,2.0,-999.0,71,-99.99,,,0.00,weatherlink.com 1.10,2013-02-06 13:34:00,
2013-02-06 08:49:00,23.0,15.0,30.26,NNE,21,2.0,-999.0,71,-99.99,,,0.00,weatherlink.com 1.10,2013-02-06 13:49:00,
2013-02-06 09:04:00,24.0,16.0,30.26,NNE,21,2.0,-999.0,70,-99.99,,,0.00,weatherlink.com 1.10,2013-02-06 14:04:00,
2013-02-06 09:19:00,24.5,15.0,30.26,NNE,21,4.0,-999.0,68,-99.99,,,0.00,weatherlink.com 1.10,2013-02-06 14:19:00,
2013-02-06 09:34:00,24.9,15.0,30.27,NE,34,4.0,-999.0,65,-99.99,,,0.00,weatherlink.com 1.10,2013-02-06 14:34:00,
2013-02-06 09:49:00,25.6,14.0,30.27,NE,50,4.0,-999.0,63,-99.99,,,0.00,weatherlink.com 1.10,2013-02-06 14:49:00,
2013-02-06 10:04:00,25.7,15.0,30.26,ENE,61,4.0,-999.0,63,-99.99,,,0.00,weatherlink.com 1.10,2013-02-06 15:04:00,
2013-02-06 10:19:00,25.8,15.0,30.27,ENE,63,5.0,-999.0,64,-99.99,,,0.00,weatherlink.com 1.10,2013-02-06 15:19:00,
2013-02-06 10:34:00,26.2,16.0,30.27,ENE,64,3.0,-999.0,65,-99.99,,,0.00,weatherlink.com 1.10,2013-02-06 15:34:00,
2013-02-06 10:48:00,26.6,16.0,30.27,ENE,64,3.0,-999.0,64,-99.99,,,0.00,weatherlink.com 1.10,2013-02-06 15:48:00,
2013-02-06 11:05:00,26.9,16.0,30.28,ENE,64,3.0,-999.0,63,-99.99,,,0.00,weatherlink.com 1.10,2013-02-06 16:05:00,
2013-02-06 11:20:00,27.0,16.0,30.29,ENE,70,2.0,-999.0,63,-99.99,,,0.01,weatherlink.com 1.10,2013-02-06 16:20:00,
2013-02-06 11:36:00,26.7,16.0,30.30,ENE,78,4.0,-999.0,63,-99.99,,,0.01,weatherlink.com 1.10,2013-02-06 16:36:00,
2013-02-06 11:50:00,27.4,16.0,30.30,ENE,78,4.0,-999.0,63,-99.99,,,0.01,weatherlink.com 1.10,2013-02-06 16:50:00,
2013-02-06 12:05:00,27.5,16.0,30.29,East,84,3.0,-999.0,61,-99.99,,,0.01,weatherlink.com 1.10,2013-02-06 17:05:00,
2013-02-06 12:20:00,27.9,16.0,30.29,East,88,3.0,-999.0,60,-99.99,,,0.01,weatherlink.com 1.10,2013-02-06 17:20:00,
2013-02-06 12:35:00,27.8,15.0,30.29,East,89,6.0,-999.0,60,-99.99,,,0.01,weatherlink.com 1.10,2013-02-06 17:35:00,
2013-02-06 12:50:00,28.2,16.0,30.29,East,92,4.0,-999.0,61,-99.99,,,0.01,weatherlink.com 1.10,2013-02-06 17:50:00,
2013-02-06 13:05:00,28.1,16.0,30.29,East,95,2.0,-999.0,61,-99.99,,,0.01,weatherlink.com 1.10,2013-02-06 18:05:00,
2013-02-06 13:20:00,28.3,14.0,30.29,East,96,6.0,-999.0,56,-99.99,,,0.01,weatherlink.com 1.10,2013-02-06 18:20:00,
2013-02-06 13:36:00,28.4,16.0,30.28,East,96,5.0,-999.0,60,-99.99,,,0.01,weatherlink.com 1.10,2013-02-06 18:36:00,
2013-02-06 13:51:00,28.9,16.0,30.27,East,97,8.0,-999.0,58,-99.99,,,0.01,weatherlink.com 1.10,2013-02-06 18:51:00,
2013-02-06 14:06:00,28.8,16.0,30.28,East,97,2.0,-999.0,58,-99.99,,,0.02,weatherlink.com 1.10,2013-02-06 19:06:00,
2013-02-06 14:21:00,28.9,15.0,30.28,East,97,6.0,-999.0,57,-99.99,,,0.02,weatherlink.com 1.10,2013-02-06 19:21:00,
2013-02-06 14:36:00,29.3,16.0,30.27,East,100,6.0,-999.0,57,-99.99,,,0.02,weatherlink.com 1.10,2013-02-06 19:36:00,
2013-02-06 14:51:00,29.5,16.0,30.27,ESE,105,4.0,-999.0,58,-99.99,,,0.02,weatherlink.com 1.10,2013-02-06 19:51:00,
2013-02-06 15:07:00,29.9,16.0,30.28,ESE,106,7.0,-999.0,57,-99.99,,,0.02,weatherlink.com 1.10,2013-02-06 20:07:00,
2013-02-06 15:21:00,30.0,17.0,30.28,ESE,106,5.0,-999.0,58,-99.99,,,0.02,weatherlink.com 1.10,2013-02-06 20:21:00,
2013-02-06 15:36:00,30.0,17.0,30.29,ESE,106,2.0,-999.0,59,-99.99,,,0.02,weatherlink.com 1.10,2013-02-06 20:36:00,
2013-02-06 15:52:00,30.1,18.0,30.29,ESE,106,4.0,-999.0,60,-99.99,,,0.02,weatherlink.com 1.10,2013-02-06 20:52:00,
2013-02-06 16:06:00,29.9,17.0,30.27,ESE,107,6.0,-999.0,60,-99.99,,,0.02,weatherlink.com 1.10,2013-02-06 21:06:00,
2013-02-06 16:21:00,29.8,17.0,30.28,ESE,107,4.0,-999.0,60,-99.99,,,0.02,weatherlink.com 1.10,2013-02-06 21:21:00,
2013-02-06 16:36:00,30.0,18.0,30.29,ESE,107,2.0,-999.0,60,-99.99,,,0.02,weatherlink.com 1.10,2013-02-06 21:36:00,
2013-02-06 16:51:00,30.1,17.0,30.30,ESE,107,4.0,-999.0,59,-99.99,,,0.02,weatherlink.com 1.10,2013-02-06 21:51:00,
2013-02-06 17:07:00,30.0,18.0,30.30,ESE,107,1.0,-999.0,60,-99.99,,,0.03,weatherlink.com 1.10,2013-02-06 22:07:00,
2013-02-06 17:22:00,29.8,17.0,30.30,ESE,107,4.0,-999.0,59,-99.99,,,0.03,weatherlink.com 1.10,2013-02-06 22:22:00,
2013-02-06 17:37:00,29.0,17.0,30.29,ESE,107,4.0,-999.0,62,-99.99,,,0.03,weatherlink.com 1.10,2013-02-06 22:37:00,
2013-02-06 17:52:00,28.3,17.0,30.29,ESE,107,4.0,-999.0,63,-99.99,,,0.03,weatherlink.com 1.10,2013-02-06 22:52:00,
2013-02-06 18:07:00,27.5,17.0,30.29,ESE,107,1.0,-999.0,64,-99.99,,,0.03,weatherlink.com 1.10,2013-02-06 23:07:00,
2013-02-06 18:22:00,26.6,17.0,30.29,ESE,107,4.0,-999.0,66,-99.99,,,0.03,weatherlink.com 1.10,2013-02-06 23:22:00,
2013-02-06 18:37:00,26.2,17.0,30.30,ESE,107,4.0,-999.0,67,-99.99,,,0.03,weatherlink.com 1.10,2013-02-06 23:37:00,
2013-02-06 18:52:00,25.8,17.0,30.29,ESE,107,2.0,-999.0,68,-99.99,,,0.03,weatherlink.com 1.10,2013-02-06 23:52:00,
2013-02-06 19:07:00,25.2,16.0,30.29,ESE,107,2.0,-999.0,68,-99.99,,,0.03,weatherlink.com 1.10,2013-02-07 00:07:00,
2013-02-06 19:23:00,24.4,16.0,30.29,ESE,107,4.0,-999.0,69,-99.99,,,0.03,weatherlink.com 1.10,2013-02-07 00:23:00,
2013-02-06 19:38:00,24.0,16.0,30.30,ESE,107,2.0,-999.0,71,-99.99,,,0.03,weatherlink.com 1.10,2013-02-07 00:38:00,
2013-02-06 19:52:00,23.6,15.0,30.30,ESE,107,2.0,-999.0,71,-99.99,,,0.03,weatherlink.com 1.10,2013-02-07 00:52:00,
2013-02-06 20:09:00,23.5,16.0,30.29,ESE,107,2.0,-999.0,72,-99.99,,,0.03,weatherlink.com 1.10,2013-02-07 01:09:00,
2013-02-06 20:23:00,23.4,16.0,30.28,ESE,107,6.0,-999.0,72,-99.99,,,0.03,weatherlink.com 1.10,2013-02-07 01:23:00,
2013-02-06 20:38:00,23.8,16.0,30.29,ESE,107,4.0,-999.0,72,-99.99,,,0.03,weatherlink.com 1.10,2013-02-07 01:38:00,
2013-02-06 20:53:00,23.9,16.0,30.29,ESE,107,2.0,-999.0,71,-99.99,,,0.03,weatherlink.com 1.10,2013-02-07 01:53:00,
2013-02-06 21:08:00,23.3,16.0,30.27,ESE,107,8.0,-999.0,73,-99.99,,,0.03,weatherlink.com 1.10,2013-02-07 02:08:00,
2013-02-06 21:23:00,23.5,16.0,30.27,ESE,105,4.0,-999.0,73,-99.99,,,0.03,weatherlink.com 1.10,2013-02-07 02:23:00,
2013-02-06 21:38:00,23.8,16.0,30.27,ESE,107,4.0,-999.0,73,-99.99,,,0.03,weatherlink.com 1.10,2013-02-07 02:38:00,
2013-02-06 21:53:00,23.5,16.0,30.27,ESE,107,4.0,-999.0,73,-99.99,,,0.03,weatherlink.com 1.10,2013-02-07 02:53:00,
2013-02-06 22:08:00,23.6,16.0,30.27,ESE,107,6.0,-999.0,74,-99.99,,,0.03,weatherlink.com 1.10,2013-02-07 03:08:00,
2013-02-06 22:23:00,23.2,16.0,30.25,ESE,107,4.0,-999.0,74,-99.99,,,0.03,weatherlink.com 1.10,2013-02-07 03:23:00,
2013-02-06 22:38:00,23.4,16.0,30.24,ESE,107,4.0,-999.0,74,-99.99,,,0.03,weatherlink.com 1.10,2013-02-07 03:38:00,
2013-02-06 22:54:00,22.8,16.0,30.24,ESE,108,8.0,-999.0,76,-99.99,,,0.03,weatherlink.com 1.10,2013-02-07 03:54:00,
2013-02-06 23:08:00,23.3,17.0,30.24,ESE,114,6.0,-999.0,77,-99.99,,,0.03,weatherlink.com 1.10,2013-02-07 04:08:00,
2013-02-06 23:24:00,23.9,18.0,30.23,ESE,118,11.0,-999.0,77,-99.99,,,0.03,weatherlink.com 1.10,2013-02-07 04:24:00,
2013-02-06 23:39:00,24.4,18.0,30.23,SE,124,8.0,-999.0,77,-99.99,,,0.03,weatherlink.com 1.10,2013-02-07 04:39:00,
2013-02-06 23:54:00,24.7,18.0,30.23,ESE,123,4.0,-999.0,77,-99.99,,,0.03,weatherlink.com 1.10,2013-02-07 04:54:00,